Погода в Копаново

Россия / Рязанская область     54°35′42″N   41°03′25″E
темп.,
°C
ветер,
м/с
пор.,
м/с
влажн.,
%
обл.,
%
осадки,
мм/ч
давл.,
гПа
погр.,
м
16 апреля, пт
пт1600:00+13в61455100 0.0 1015298
03:00+10в3673100 0.4 1016120
06:00+10св4978100 0.5 1017215
09:00+13в5873100 0.5 1018528
12:00+17в5657100 0.1 1018893
15:00+19всв6746100 0.1 10181427
18:00+17всв6114896 0.0 1018429
21:00+13всв7146547 0.0 1019398
17 апреля, сб
сб1700:00+12в5118019 0.4 1020329
03:00+10в51085100 1.0 1020345
06:00+9всв51088100 1.4 1020324
09:00+12всв71173100 1.4 1020508
12:00+17в81152100 0.0 1019977
15:00+18в81047100 0.3 10192283
18:00+15в7135991 0.3 1018784
21:00+8юз4694100 9.9 1021283
18 апреля, вс
вс1800:00+9в2593100 4.6 1021268
03:00+9в1397100 7.1 1021239
06:00+7всв4894100 3.0 1021312
09:00+6всв5993100 5.5 1021433
12:00+6всв4893100 1.2 1021483
15:00+6всв5892100 1.3 1022505
18:00+7в5886100 0.0 1022655
21:00+6всв4790100 0.0 1023483
19 апреля, пн
пн1900:00+6всв3694100 0.0 1023260
03:00+6всв4793100 0.0 1024248
06:00+6всв499465 0.0 1024366
09:00+8в578197 0.0 1024711
12:00+9в6878100 0.0 1024851
15:00+9в71073100 0.0 1024950
18:00+9в61276100 0.0 1024870
21:00+8в7156884 0.0 1023616
20 апреля, вт
вт2000:00+6в7157618 0.0 1023517
03:00+5в71579100 0.0 1022573
06:00+5в81679100 0.0 1020696
09:00+7в91778100 0.0 1018873
12:00+9вюв101875100 0.0 10161040
15:00+8вюв112078100 1.0 1013955
18:00+7вюв132390100 9.9 1011926
21:00+6вюв122389100 13.0 1010987